Storm Lake, IA

7:44 PM CST on February 11, 2016 (GMT -0600)
Storm Lake Municipal

Weather History for KSLB - January, 2013

Change the Weather History Date:

Monday, January 21, 2013

  Actual Average Record
Temperature  
Mean Temperature -3 °F -  
Max Temperature 3 °F - - ()
Min Temperature -9 °F - - ()
Degree Days  
Heating Degree Days 68    
Moisture  
Dew Point -11 °F    
Average Humidity 68    
Maximum Humidity 78    
Minimum Humidity 60    
Precipitation  
Precipitation 0.00 in - - ()
Sea Level Pressure  
Sea Level Pressure 30.32 in    
Wind  
Wind Speed 16 mph (WNW)    
Max Wind Speed 26 mph    
Max Gust Speed 33 mph    
Visibility 10 miles    
Events      
T = Trace of Precipitation, MM = Missing Value Source: NWS Daily Summary

Daily Weather History Graph

Daily Weather History Graph

Search for Another Location

Airport or City:

Trip Planner

Search our weather history database for the weather conditions in past years. The results will help you decide how hot, cold, wet, or windy it might be!

Date:

Astronomy

Jan. 21, 2013 Rise Set
Actual Time 7:44 AM CST 5:20 PM CST
Civil Twilight 7:13 AM CST 5:51 PM CST
Nautical Twilight 6:39 AM CST 6:25 PM CST
Astronomical Twilight 6:05 AM CST 6:59 PM CST
Moon 1:00 PM CST (1/21) 3:13 AM CST (1/21)
Length of Visible Light 10h 37m
Length of Day
9h 36m
Waxing Gibbous, 75% of the Moon is Illuminated
Jan 21
Waxing Gibbous
Jan 26
Full
Feb 3
Last Quarter
Feb 10
New
Feb 17
First Quarter

Hourly Weather History & Observations

Time (CST) Temp. Windchill Dew Point Humidity Pressure Visibility Wind Dir Wind Speed Gust Speed Precip Events Conditions
12:15 AM -0.4 °F -18.4 °F -7.6 °F 72% 30.32 in 10.0 mi WNW 12.7 mph 18.4 mph N/A   Partly Cloudy
12:35 AM -0.4 °F -21.2 °F -7.6 °F 72% 30.32 in 10.0 mi WNW 17.3 mph - N/A   Clear
12:55 AM -0.4 °F -20.5 °F -7.6 °F 72% 30.31 in 10.0 mi WNW 16.1 mph - N/A   Clear
1:15 AM -0.4 °F -19.9 °F -7.6 °F 72% 30.31 in 10.0 mi WNW 15.0 mph 20.7 mph N/A   Clear
1:35 AM -0.4 °F -19.2 °F -7.6 °F 72% 30.31 in 10.0 mi WNW 13.8 mph - N/A   Clear
1:55 AM -0.4 °F -22.3 °F -7.6 °F 72% 30.32 in 10.0 mi WNW 19.6 mph - N/A   Mostly Cloudy
2:15 AM -0.4 °F -20.5 °F -7.6 °F 72% 30.32 in 10.0 mi NW 16.1 mph 23.0 mph N/A   Scattered Clouds
2:35 AM -0.4 °F -21.7 °F -7.6 °F 72% 30.32 in 8.0 mi NW 18.4 mph 26.5 mph N/A   Mostly Cloudy
2:55 AM -0.4 °F -22.3 °F -9.4 °F 66% 30.33 in 4.0 mi NW 19.6 mph 32.2 mph N/A   Light Freezing Rain
3:15 AM -2.2 °F -26.7 °F -11.2 °F 66% 30.33 in 8.0 mi NW 24.2 mph 33.4 mph N/A   Scattered Clouds
3:35 AM -2.2 °F -27.1 °F -11.2 °F 66% 30.32 in 10.0 mi NNW 25.3 mph - N/A   Scattered Clouds
3:55 AM -2.2 °F -25.7 °F -9.4 °F 71% 30.33 in 2.5 mi NW 21.9 mph 28.8 mph N/A   Light Freezing Rain
4:15 AM -4.0 °F -30.0 °F -13.0 °F 65% 30.33 in 9.0 mi NW 26.5 mph 33.4 mph N/A   Overcast
4:55 AM -5.8 °F -29.9 °F -16.6 °F 60% 30.33 in 10.0 mi NW 20.7 mph 27.6 mph N/A   Partly Cloudy
5:15 AM -7.6 °F -28.3 °F -16.6 °F 65% 30.33 in - NW 13.8 mph 20.7 mph N/A   Clear
5:35 AM -7.6 °F -29.1 °F -16.6 °F 65% 30.34 in 10.0 mi NW 15.0 mph - N/A   Clear
5:55 AM -7.6 °F -26.6 °F -16.6 °F 65% 30.34 in 10.0 mi NW 11.5 mph - N/A   Clear
6:15 AM -7.6 °F -28.3 °F -16.6 °F 65% 30.34 in 10.0 mi NW 13.8 mph - N/A   Clear
6:35 AM -7.6 °F -29.1 °F -16.6 °F 65% 30.34 in 10.0 mi WNW 15.0 mph - N/A   Partly Cloudy
6:55 AM -7.6 °F -29.8 °F -14.8 °F 71% 30.33 in 10.0 mi NW 16.1 mph - N/A   Scattered Clouds
7:15 AM -7.6 °F -28.3 °F -16.6 °F 65% 30.33 in 10.0 mi WNW 13.8 mph - N/A   Partly Cloudy
7:35 AM -7.6 °F -28.3 °F -16.6 °F 65% 30.32 in 10.0 mi WNW 13.8 mph - N/A   Mostly Cloudy
7:55 AM -9.4 °F -28.9 °F -16.6 °F 71% 30.33 in 10.0 mi WNW 11.5 mph - N/A   Partly Cloudy
8:15 AM -7.6 °F -25.7 °F -16.6 °F 65% 30.34 in 10.0 mi WNW 10.4 mph - N/A   Clear
8:35 AM -7.6 °F -29.1 °F -14.8 °F 71% 30.33 in 10.0 mi NW 15.0 mph - N/A   Clear
8:55 AM -5.8 °F -28.8 °F -14.8 °F 65% 30.34 in 10.0 mi NW 18.4 mph 25.3 mph N/A   Clear
9:15 AM -5.8 °F -29.4 °F -14.8 °F 65% 30.35 in 10.0 mi WNW 19.6 mph - N/A   Clear
9:35 AM -4.0 °F -26.4 °F -14.8 °F 60% 30.36 in 10.0 mi WNW 18.4 mph 26.5 mph N/A   Clear
9:55 AM -4.0 °F -27.6 °F -13.0 °F 65% 30.36 in 10.0 mi WNW 20.7 mph - N/A   Clear
10:15 AM -4.0 °F -26.4 °F -13.0 °F 65% 30.36 in 10.0 mi NW 18.4 mph 26.5 mph N/A   Clear
10:35 AM -4.0 °F -25.2 °F -13.0 °F 65% 30.36 in 10.0 mi WNW 16.1 mph 24.2 mph N/A   Clear
10:55 AM -2.2 °F -22.9 °F -13.0 °F 60% 30.36 in 10.0 mi WNW 16.1 mph 23.0 mph N/A   Clear
11:15 AM -2.2 °F -22.9 °F -11.2 °F 66% 30.36 in 10.0 mi WNW 16.1 mph - N/A   Clear
11:35 AM -2.2 °F -22.2 °F -11.2 °F 66% 30.35 in 10.0 mi NW 15.0 mph 21.9 mph N/A   Clear
11:55 AM -0.4 °F -21.7 °F -11.2 °F 60% 30.34 in 10.0 mi NW 18.4 mph 25.3 mph N/A   Clear
12:15 PM -0.4 °F -21.2 °F -9.4 °F 66% 30.33 in 10.0 mi WNW 17.3 mph - N/A   Clear
12:35 PM -0.4 °F -21.2 °F -11.2 °F 60% 30.31 in 10.0 mi WNW 17.3 mph 26.5 mph N/A   Clear
12:55 PM -0.4 °F -23.3 °F -9.4 °F 66% 30.31 in 10.0 mi WNW 21.9 mph - N/A   Clear
1:15 PM 1.4 °F -19.9 °F -7.6 °F 66% 30.31 in 10.0 mi WNW 19.6 mph - N/A   Clear
1:35 PM 1.4 °F -21.4 °F -7.6 °F 66% 30.30 in 10.0 mi WNW 23.0 mph - N/A   Clear
1:55 PM 1.4 °F -21.0 °F -7.6 °F 66% 30.30 in 10.0 mi WNW 21.9 mph - N/A   Partly Cloudy
2:15 PM 1.4 °F -20.5 °F -7.6 °F 66% 30.30 in 10.0 mi WNW 20.7 mph - N/A   Partly Cloudy
2:35 PM 1.4 °F -21.0 °F -7.6 °F 66% 30.29 in 10.0 mi WNW 21.9 mph - N/A   Partly Cloudy
2:55 PM 1.4 °F -20.5 °F -7.6 °F 66% 30.29 in 10.0 mi WNW 20.7 mph 27.6 mph N/A   Partly Cloudy
3:15 PM 3.2 °F -17.1 °F -7.6 °F 61% 30.29 in 10.0 mi WNW 18.4 mph - N/A   Clear
3:35 PM 1.4 °F -20.5 °F -7.6 °F 66% 30.29 in 10.0 mi WNW 20.7 mph - N/A   Clear
3:55 PM 1.4 °F -19.9 °F -7.6 °F 66% 30.29 in 10.0 mi WNW 19.6 mph 25.3 mph N/A   Clear
4:15 PM 1.4 °F -18.8 °F -7.6 °F 66% 30.30 in 10.0 mi WNW 17.3 mph - N/A   Clear
4:35 PM -0.4 °F -19.2 °F -7.6 °F 72% 30.29 in 10.0 mi WNW 13.8 mph - N/A   Clear
4:55 PM -0.4 °F -18.4 °F -9.4 °F 66% 30.29 in 10.0 mi WNW 12.7 mph - N/A   Clear
5:15 PM -0.4 °F -18.4 °F -9.4 °F 66% 30.30 in 10.0 mi WNW 12.7 mph - N/A   Clear
5:35 PM -2.2 °F -18.9 °F -9.4 °F 71% 30.29 in 10.0 mi WNW 10.4 mph - N/A   Clear
5:55 PM -2.2 °F -18.9 °F -11.2 °F 66% 30.29 in 10.0 mi West 10.4 mph - N/A   Clear
6:15 PM -4.0 °F -20.2 °F -11.2 °F 71% 30.30 in 10.0 mi West 9.2 mph - N/A   Clear
6:35 PM -4.0 °F -21.2 °F -11.2 °F 71% 30.29 in 10.0 mi WNW 10.4 mph - N/A   Clear
6:55 PM -4.0 °F -22.1 °F -11.2 °F 71% 30.29 in 10.0 mi WNW 11.5 mph - N/A   Clear
7:15 PM -4.0 °F -23.0 °F -11.2 °F 71% 30.29 in 10.0 mi WNW 12.7 mph - N/A   Clear
7:35 PM -4.0 °F -22.1 °F -11.2 °F 71% 30.29 in 10.0 mi West 11.5 mph - N/A   Clear
7:55 PM -5.8 °F -24.4 °F -11.2 °F 77% 30.29 in 10.0 mi WNW 11.5 mph - N/A   Clear
8:15 PM -4.0 °F -20.2 °F -11.2 °F 71% 30.30 in 10.0 mi WNW 9.2 mph - N/A   Clear
8:35 PM -4.0 °F -21.2 °F -11.2 °F 71% 30.30 in 10.0 mi WNW 10.4 mph - N/A   Clear
8:55 PM -2.2 °F -19.9 °F -9.4 °F 71% 30.29 in 10.0 mi WNW 11.5 mph - N/A   Clear
9:15 PM -4.0 °F -22.1 °F -11.2 °F 71% 30.30 in 10.0 mi WNW 11.5 mph - N/A   Clear
9:35 PM -4.0 °F -21.2 °F -11.2 °F 71% 30.30 in 10.0 mi WNW 10.4 mph - N/A   Clear
9:55 PM -2.2 °F -18.9 °F -9.4 °F 71% 30.30 in 10.0 mi WNW 10.4 mph - N/A   Clear
10:15 PM -2.2 °F -18.0 °F -9.4 °F 71% 30.29 in 10.0 mi WNW 9.2 mph - N/A   Clear
10:35 PM -2.2 °F -16.8 °F -9.4 °F 71% 30.30 in 10.0 mi West 8.1 mph - N/A   Clear
10:55 PM -2.2 °F -16.8 °F -9.4 °F 71% 30.30 in 10.0 mi West 8.1 mph - N/A   Clear
11:15 PM -2.2 °F -15.6 °F -7.6 °F 78% 30.30 in 10.0 mi West 6.9 mph - N/A   Clear
11:35 PM -2.2 °F -16.8 °F -7.6 °F 78% 30.30 in 10.0 mi West 8.1 mph - N/A   Clear
11:55 PM -0.4 °F -13.4 °F -7.6 °F 72% 30.29 in 10.0 mi West 6.9 mph - N/A   Scattered Clouds